SCP
-0 -0 -0 -0 -0 -0 -0 -0 -0 -0 -0 -0 -0 -0 -0 -0 -0 -0 -0 -0 -0 -0 -0 -0 -0 -0 -0
-0 -0 -0 -0 -0 -0 -0 -0 -0 -0 -0 -0 -0 -0 -0 -0 -0 -0 -0 -0 -0 -0 -0 -0 -0 -0 0
-0 -0 -0 -0 -0 -0 -0 -0 -0 -0 -0 -0 -0 -0 -0 -0 -0 -0 -0 -0 -0 -0 -0 -0 0 0 0
-0 -0 -0 -0 -0 -0 -0 -0 -0 0 0 0 0 0 0 0 -0 -0 0 0 0 0 0 0 0 0 0
-0 -0 -0 -0 -0 -0 -0 0 0 0 0 0 0 0 0 0 0 0 0 0 0 0 0 0 0 0 0
-0 -0 -0 -0 0 0 0 0 0 0 0 0 0 0 0 0 0 0 0 0 0 0 0 0 0 0 0
-0 -0 -0 -0 -0 0 0 0 0 0 0 0 0 0 0 0 0 0 0 0 0 0 0 0 0 0 0
-0 -0 -0 -0 -0 -0 0 0 0 0 0 0 0 0 0 0 0 0 0 0 0 0 0 0 0 0 0
-0 -0 -0 -0 -0 0 0 -0 0 0 0 0 0 0 0 0 0 0 0 0 0 0 0 0 0 0 0
-0 0 0 0 0 0 0 0 0 0 0 0 0 0 0 0 0 0 0 0 0 0 0 0 0 0 0
0 0 0 0 0 0 0 0 0 0 0 0 0 0 0 0 0 0 0 0 0 0 0 0 0 0 0
0 0 0 0 0 0 0 0 0 0 0 0 0 0 0 0 0 0 0 0 0 0 0 0 0 0 0
0 0 0 0 0 0 0 0 0 0 0 0 0 0 0 0 0 0 0 0 0 0 0 0 0 0 0
0 0 0 0 0 0 0 0 0 0 0 0 0 0 0 0 0 0 0 0 0 0 0 0 0 0 0
0 0 0 0 0 0 0 0 0 0 0 0 0 0 0 0 0 0 0 0 0 0 0 0 0 0 0
0 0 0 0 0 0 0 0 0 0 0 0 0 0 0 0 0 0 0 0 0 0 0 0 0 0 0
Wind_Speed_500mb
25 20 17 16 17 15 14 14 13 13 14 14 16 17 20 24 28 29 28 26 24 21 17 21 21 29 32
30 25 21 18 18 16 13 10 10 10 13 14 14 15 15 16 19 22 25 22 20 18 21 30 34 34 39
34 31 26 20 19 18 16 14 9 10 12 14 15 16 17 17 18 20 19 20 19 17 17 18 32 35 41
40 37 34 31 28 25 22 19 15 15 15 16 15 15 15 16 18 19 18 17 17 16 19 30 30 32 33
47 43 41 37 33 32 30 26 22 21 18 18 16 15 15 15 15 14 12 14 15 16 22 32 35 32 31
46 46 44 43 42 39 36 33 30 26 17 21 16 14 14 15 13 13 9 9 10 13 18 33 32 32 30
49 45 46 46 47 43 44 41 36 32 21 23 23 21 17 14 14 12 9 8 9 12 18 33 37 34 33
53 50 49 47 44 48 50 48 41 38 32 28 32 30 29 16 22 20 18 15 14 13 19 30 31 33 33
62 58 55 56 54 54 53 54 49 44 44 36 37 41 36 30 27 29 28 28 28 24 22 28 35 36 35
69 67 66 65 60 59 57 58 57 59 54 52 49 47 45 41 34 37 38 34 33 33 31 33 39 41 41
69 70 74 69 70 68 65 62 61 60 59 61 62 54 56 54 49 46 46 44 42 41 39 37 40 45 46
71 71 74 77 78 77 72 68 65 65 65 65 66 65 62 67 63 59 56 53 49 50 46 43 43 48 51
85 85 84 86 85 84 81 79 76 73 72 70 74 75 74 73 71 68 66 64 62 62 55 52 52 52 55
86 88 91 86 90 88 87 86 83 79 79 74 76 76 81 76 80 83 77 74 76 73 69 56 40 57 66
82 89 94 97 96 92 92 91 87 84 81 79 75 78 81 84 81 88 90 88 89 82 81 62 27 35 54
77 86 91 94 98 95 93 94 94 88 85 85 82 83 84 83 86 85 97 94 98 96 90 92 83 57 39
Wind_Direction_500mb
186 182 176 169 161 149 132 118 105 105 112 125 132 134 138 141 150 154 157 159 154 146 147 162 155 141 125
192 196 198 184 179 169 151 140 118 119 120 124 124 128 132 144 158 163 170 174 168 156 142 144 140 133 133
201 203 203 197 193 190 183 181 165 153 150 148 142 141 145 151 157 169 179 181 182 171 160 158 144 141 148
206 208 208 208 205 205 203 200 193 186 177 166 161 152 149 154 162 171 177 182 183 184 171 160 161 151 161
210 211 212 213 214 214 212 213 209 200 192 187 180 173 172 169 171 171 185 192 199 202 190 165 165 160 170
218 218 220 221 220 219 219 220 221 210 218 201 196 196 192 186 184 177 202 227 223 213 195 173 170 167 168
220 224 224 228 229 227 227 227 225 222 231 210 205 202 205 218 208 206 211 248 257 232 203 190 181 173 165
220 225 228 227 232 233 231 233 229 228 232 226 220 212 202 221 245 247 261 262 268 251 220 204 211 200 183
227 227 229 227 234 235 235 235 235 233 226 231 232 223 225 212 239 251 253 240 237 233 228 223 220 219 214
228 227 230 229 234 238 237 235 237 230 226 230 230 232 232 236 242 245 248 240 235 240 229 228 227 227 226
234 231 232 232 234 238 239 236 238 238 235 233 232 235 238 235 236 244 245 238 239 236 234 230 231 231 229
238 238 235 235 237 239 241 240 239 243 240 240 242 239 240 239 237 234 235 238 237 231 227 228 229 231 231
236 234 235 236 236 237 240 241 242 242 243 241 242 241 239 245 248 242 234 231 225 224 223 220 225 230 233
240 242 240 241 242 243 245 244 242 240 243 246 245 247 245 246 244 237 236 236 228 225 221 222 219 228 233
244 241 241 242 243 245 245 244 240 241 244 243 249 248 249 250 248 247 244 239 233 234 227 226 211 223 236
247 246 248 249 250 252 249 247 246 240 239 241 245 247 250 251 250 249 251 248 244 240 232 228 232 244 222
Wind_Speed_850mb
25 20 17 16 17 15 14 14 13 13 14 14 16 17 20 24 28 29 28 26 24 21 17 21 21 29 32
30 25 21 18 18 16 13 10 10 10 13 14 14 15 15 16 19 22 25 22 20 18 21 30 34 34 39
34 31 26 20 19 18 16 14 9 10 12 14 15 16 17 17 18 20 19 20 19 17 17 18 32 35 41
40 37 34 31 28 25 22 19 15 15 15 16 15 15 15 16 18 19 18 17 17 16 19 30 30 32 33
47 43 41 37 33 32 30 26 22 21 18 18 16 15 15 15 15 14 12 14 15 16 22 32 35 32 31
46 46 44 43 42 39 36 33 30 26 17 21 16 14 14 15 13 13 9 9 10 13 18 33 32 32 30
49 45 46 46 47 43 44 41 36 32 21 23 23 21 17 14 14 12 9 8 9 12 18 33 37 34 33
53 50 49 47 44 48 50 48 41 38 32 28 32 30 29 16 22 20 18 15 14 13 19 30 31 33 33
62 58 55 56 54 54 53 54 49 44 44 36 37 41 36 30 27 29 28 28 28 24 22 28 35 36 35
69 67 66 65 60 59 57 58 57 59 54 52 49 47 45 41 34 37 38 34 33 33 31 33 39 41 41
69 70 74 69 70 68 65 62 61 60 59 61 62 54 56 54 49 46 46 44 42 41 39 37 40 45 46
71 71 74 77 78 77 72 68 65 65 65 65 66 65 62 67 63 59 56 53 49 50 46 43 43 48 51
85 85 84 86 85 84 81 79 76 73 72 70 74 75 74 73 71 68 66 64 62 62 55 52 52 52 55
86 88 91 86 90 88 87 86 83 79 79 74 76 76 81 76 80 83 77 74 76 73 69 56 40 57 66
82 89 94 97 96 92 92 91 87 84 81 79 75 78 81 84 81 88 90 88 89 82 81 62 27 35 54
77 86 91 94 98 95 93 94 94 88 85 85 82 83 84 83 86 85 97 94 98 96 90 92 83 57 39
Wind_Direction_850mb
186 182 176 169 161 149 132 118 105 105 112 125 132 134 138 141 150 154 157 159 154 146 147 162 155 141 125
192 196 198 184 179 169 151 140 118 119 120 124 124 128 132 144 158 163 170 174 168 156 142 144 140 133 133
201 203 203 197 193 190 183 181 165 153 150 148 142 141 145 151 157 169 179 181 182 171 160 158 144 141 148
206 208 208 208 205 205 203 200 193 186 177 166 161 152 149 154 162 171 177 182 183 184 171 160 161 151 161
210 211 212 213 214 214 212 213 209 200 192 187 180 173 172 169 171 171 185 192 199 202 190 165 165 160 170
218 218 220 221 220 219 219 220 221 210 218 201 196 196 192 186 184 177 202 227 223 213 195 173 170 167 168
220 224 224 228 229 227 227 227 225 222 231 210 205 202 205 218 208 206 211 248 257 232 203 190 181 173 165
220 225 228 227 232 233 231 233 229 228 232 226 220 212 202 221 245 247 261 262 268 251 220 204 211 200 183
227 227 229 227 234 235 235 235 235 233 226 231 232 223 225 212 239 251 253 240 237 233 228 223 220 219 214
228 227 230 229 234 238 237 235 237 230 226 230 230 232 232 236 242 245 248 240 235 240 229 228 227 227 226
234 231 232 232 234 238 239 236 238 238 235 233 232 235 238 235 236 244 245 238 239 236 234 230 231 231 229
238 238 235 235 237 239 241 240 239 243 240 240 242 239 240 239 237 234 235 238 237 231 227 228 229 231 231
236 234 235 236 236 237 240 241 242 242 243 241 242 241 239 245 248 242 234 231 225 224 223 220 225 230 233
240 242 240 241 242 243 245 244 242 240 243 246 245 247 245 246 244 237 236 236 228 225 221 222 219 228 233
244 241 241 242 243 245 245 244 240 241 244 243 249 248 249 250 248 247 244 239 233 234 227 226 211 223 236
247 246 248 249 250 252 249 247 246 240 239 241 245 247 250 251 250 249 251 248 244 240 232 228 232 244 222